Tracking 29892 objects as of 21-Nov-2024
HD Live streaming from Space Station
objects crossing your sky now

NOAA 16 DEB

Track NOAA 16 DEB now!
10-day predictions


NORAD ID: 42388
Int'l Code: 2000-055SG
Perigee: 803.4 km
Apogee: 828.8 km
Inclination: 98.6 °
Period: 101.1 minutes
Semi major axis: 7187 km
RCS: Unknown
Launch date: September 21, 2000
Source: United States (US)
Launch site: AIR FORCE WESTERN TEST RANGE (AFWTR)

Note: This is SATELLITE DEBRIS
Your satellite tracking list
Your tracking list is empty




NASA's NSSDC Master Catalog

Two Line Element Set (TLE):
1 42388U 00055SG  24325.33021780  .00006520  00000-0  28051-2 0  9996
2 42388  98.6269   1.4797 0017627 174.2568 185.8816 14.24859945452257
Source of the keplerian elements: AFSPC